NPT2204 EGCC-LYTV

Flight info

Callsign NPT2204
Flight time N/A
Altitude 33000
Route LISTO L612 HON L15 FINMA DCT CHT DCT ITVIP DCT KONAN DCT KOK DCT DIK M150 PITES DCT KRH/N0450F350 DCT KUNOD DCT GEDSO DCT VEKEN DCT NERRA/N0381F190 L607 BALHA L187 TAZ
Aircraft A321/M-SDE3FGHIRWY/LB1

Departure

Time N/A
Airport Manchester Airport (EGCC)

Arrival

Time 2026-05-04 15:45
Airport Tivat Airport (LYTV)
Time Latitude Longitude Altitude Speed Heading
2026-05-04 14:25 48.32802 9.63955 34994 ft 458 kts 131°
2026-05-04 14:25 48.26844 9.75070 34998 ft 457 kts 133°
2026-05-04 14:26 48.22813 9.82437 34991 ft 457 kts 133°
2026-05-04 14:26 48.18805 9.89807 34984 ft 456 kts 132°
2026-05-04 14:27 48.14813 9.97201 34996 ft 456 kts 132°
2026-05-04 14:27 48.10826 10.04560 35000 ft 455 kts 132°
2026-05-04 14:28 48.06828 10.11903 35003 ft 455 kts 132°
2026-05-04 14:28 48.02824 10.19213 35002 ft 454 kts 132°
2026-05-04 14:29 47.94803 10.33810 34991 ft 454 kts 132°
2026-05-04 14:30 47.90787 10.41092 35005 ft 455 kts 132°
2026-05-04 14:31 47.84760 10.52005 35017 ft 454 kts 132°
2026-05-04 14:32 47.76736 10.66456 34997 ft 455 kts 132°
2026-05-04 14:32 47.72695 10.73700 35006 ft 455 kts 133°
2026-05-04 14:33 47.68647 10.80929 35000 ft 455 kts 133°
2026-05-04 14:33 47.64569 10.88197 34999 ft 454 kts 133°
2026-05-04 14:34 47.60556 10.95352 34970 ft 454 kts 133°
2026-05-04 14:34 47.56515 11.02528 34974 ft 453 kts 133°
2026-05-04 14:35 47.52468 11.09687 34974 ft 453 kts 133°
2026-05-04 14:35 47.48412 11.16830 34973 ft 453 kts 133°
2026-05-04 14:36 47.44352 11.23973 34964 ft 453 kts 133°
2026-05-04 14:36 47.40296 11.31097 34978 ft 453 kts 133°
2026-05-04 14:37 47.36229 11.38216 34983 ft 453 kts 133°
2026-05-04 14:37 47.32160 11.45327 34989 ft 454 kts 133°
2026-05-04 14:38 47.28075 11.52441 34992 ft 454 kts 133°
2026-05-04 14:38 47.23992 11.59530 34992 ft 454 kts 133°
2026-05-04 14:39 47.19899 11.66607 34988 ft 454 kts 133°
2026-05-04 14:39 47.15831 11.73637 34995 ft 454 kts 134°
2026-05-04 14:40 47.09673 11.84239 35030 ft 455 kts 133°
2026-05-04 14:40 47.06339 11.92163 35042 ft 460 kts 118°
2026-05-04 14:41 47.03534 12.00620 35038 ft 460 kts 119°
2026-05-04 14:42 46.97877 12.17430 35048 ft 460 kts 118°
2026-05-04 14:42 46.95042 12.25824 35105 ft 460 kts 118°
2026-05-04 14:43 46.92207 12.34200 35106 ft 460 kts 118°
2026-05-04 14:43 46.89363 12.42587 35099 ft 459 kts 118°
2026-05-04 14:44 46.86539 12.50908 35106 ft 460 kts 118°
2026-05-04 14:44 46.83665 12.59327 35099 ft 460 kts 119°
2026-05-04 14:45 46.80799 12.67674 35089 ft 460 kts 119°
2026-05-04 14:45 46.77946 12.75970 35067 ft 460 kts 118°
2026-05-04 14:46 46.75072 12.84319 35071 ft 460 kts 118°
2026-05-04 14:46 46.72663 12.91311 35077 ft 460 kts 119°
2026-05-04 14:47 46.69790 12.99588 35081 ft 461 kts 119°
2026-05-04 14:47 46.66887 13.07914 35071 ft 461 kts 118°
2026-05-04 14:48 46.63977 13.16232 35072 ft 461 kts 119°
2026-05-04 14:48 46.61069 13.24537 35080 ft 461 kts 119°
2026-05-04 14:49 46.58139 13.32850 35083 ft 461 kts 120°
2026-05-04 14:49 46.54385 13.40288 35084 ft 455 kts 138°
2026-05-04 14:50 46.49606 13.46274 35090 ft 454 kts 141°
2026-05-04 14:50 46.44785 13.52220 35081 ft 455 kts 143°
2026-05-04 14:51 46.39970 13.58175 35077 ft 456 kts 143°
2026-05-04 14:51 46.35127 13.64126 35072 ft 456 kts 142°
2026-05-04 14:52 46.30310 13.70022 35096 ft 456 kts 142°
2026-05-04 14:52 46.25429 13.75981 35082 ft 457 kts 142°
2026-05-04 14:53 46.20597 13.81871 35088 ft 458 kts 142°
2026-05-04 14:53 46.15736 13.87790 35107 ft 458 kts 142°
2026-05-04 14:54 46.10858 13.93716 35106 ft 459 kts 142°
2026-05-04 14:54 46.05970 13.99634 35123 ft 458 kts 142°
2026-05-04 14:55 46.01089 14.05531 35102 ft 459 kts 142°
2026-05-04 14:55 45.96198 14.11420 35106 ft 459 kts 142°
2026-05-04 14:56 45.91293 14.17307 35105 ft 460 kts 142°
2026-05-04 14:56 45.86384 14.23188 35106 ft 460 kts 142°
2026-05-04 14:57 45.81467 14.29073 35115 ft 460 kts 143°
2026-05-04 14:57 45.76539 14.34956 35089 ft 462 kts 142°
2026-05-04 14:58 45.71594 14.40843 35092 ft 463 kts 142°
2026-05-04 14:58 45.66638 14.46735 35102 ft 463 kts 142°
2026-05-04 14:59 45.61686 14.52608 35112 ft 463 kts 142°
2026-05-04 15:00 45.54221 14.61418 35088 ft 465 kts 142°
2026-05-04 15:00 45.49226 14.67294 35107 ft 466 kts 142°
2026-05-04 15:01 45.41709 14.76126 35119 ft 466 kts 142°
2026-05-04 15:01 45.36707 14.81983 35121 ft 466 kts 142°
2026-05-04 15:02 45.31696 14.87836 35123 ft 466 kts 142°
2026-05-04 15:02 45.26702 14.93648 35109 ft 467 kts 142°
2026-05-04 15:03 45.21669 14.99489 35102 ft 468 kts 142°
2026-05-04 15:03 45.16625 15.05332 35101 ft 468 kts 142°
2026-05-04 15:04 45.11588 15.11171 35106 ft 467 kts 142°
2026-05-04 15:04 45.06556 15.16997 35115 ft 468 kts 142°
2026-05-04 15:05 45.01536 15.22788 35105 ft 467 kts 142°
2026-05-04 15:05 44.96460 15.28614 35115 ft 468 kts 143°
2026-05-04 15:06 44.91399 15.34397 35110 ft 467 kts 142°
2026-05-04 15:07 44.83829 15.43054 35115 ft 467 kts 142°
2026-05-04 15:07 44.78776 15.48820 35118 ft 467 kts 142°
2026-05-04 15:08 44.73711 15.54579 35111 ft 468 kts 142°
2026-05-04 15:08 44.68636 15.60331 35111 ft 468 kts 142°
2026-05-04 15:09 44.63598 15.66026 35122 ft 468 kts 142°
2026-05-04 15:09 44.58514 15.71773 35112 ft 469 kts 142°
2026-05-04 15:10 44.50861 15.80391 35161 ft 471 kts 142°
2026-05-04 15:10 44.45756 15.86118 35554 ft 469 kts 142°
2026-05-04 15:11 44.43206 15.88966 35741 ft 469 kts 142°
2026-05-04 15:11 44.40656 15.91815 35939 ft 468 kts 142°
2026-05-04 15:11 44.38113 15.94662 36079 ft 469 kts 142°
2026-05-04 15:11 44.35558 15.97523 36224 ft 470 kts 142°
2026-05-04 15:12 44.33002 16.00376 36388 ft 470 kts 142°
2026-05-04 15:12 44.30444 16.03225 36565 ft 470 kts 142°
2026-05-04 15:12 44.27887 16.06070 36726 ft 470 kts 142°
2026-05-04 15:12 44.25333 16.08909 36884 ft 469 kts 143°
2026-05-04 15:13 44.22781 16.11739 37055 ft 469 kts 143°
2026-05-04 15:13 44.17672 16.17401 37125 ft 469 kts 143°
2026-05-04 15:14 44.12583 16.23035 37118 ft 471 kts 142°
2026-05-04 15:14 44.07443 16.28699 37120 ft 471 kts 143°
2026-05-04 15:15 44.02302 16.34364 37124 ft 471 kts 143°
2026-05-04 15:15 43.97156 16.40019 37115 ft 472 kts 143°
2026-05-04 15:16 43.89451 16.48457 37127 ft 473 kts 142°
2026-05-04 15:17 43.81677 16.56941 37138 ft 474 kts 142°
2026-05-04 15:17 43.73892 16.65412 37118 ft 475 kts 143°
2026-05-04 15:18 43.68723 16.71012 37137 ft 475 kts 142°
2026-05-04 15:19 43.60869 16.79508 37128 ft 477 kts 142°
2026-05-04 15:19 43.53056 16.87923 37128 ft 477 kts 142°
2026-05-04 15:20 43.47818 16.93553 37132 ft 477 kts 142°
2026-05-04 15:20 43.42580 16.99177 37130 ft 477 kts 142°
2026-05-04 15:21 43.37335 17.04792 37133 ft 478 kts 142°
2026-05-04 15:22 43.29462 17.13200 37126 ft 478 kts 142°
2026-05-04 15:22 43.21572 17.21581 37127 ft 479 kts 142°
2026-05-04 15:23 43.16298 17.27168 37124 ft 479 kts 142°
2026-05-04 15:23 43.11026 17.32756 37133 ft 479 kts 142°
2026-05-04 15:24 43.00425 17.43933 35734 ft 489 kts 142°
2026-05-04 15:25 42.97708 17.46792 34801 ft 494 kts 142°
2026-05-04 15:25 42.94975 17.49661 33887 ft 498 kts 142°
2026-05-04 15:25 42.92304 17.52621 32817 ft 503 kts 136°
2026-05-04 15:26 42.87884 17.59909 31173 ft 498 kts 121°
2026-05-04 15:26 42.86019 17.63887 30249 ft 499 kts 121°
2026-05-04 15:26 42.82252 17.71823 28334 ft 496 kts 122°
2026-05-04 15:27 42.80372 17.75760 27325 ft 496 kts 121°
2026-05-04 15:27 42.76610 17.83622 25591 ft 489 kts 121°
2026-05-04 15:28 42.72950 17.91282 24255 ft 477 kts 121°
2026-05-04 15:28 42.71148 17.95044 23586 ft 472 kts 121°
2026-05-04 15:28 42.67616 18.02398 22995 ft 458 kts 121°
2026-05-04 15:29 42.65874 18.06024 21827 ft 462 kts 121°
2026-05-04 15:30 42.58999 18.20276 19061 ft 438 kts 121°
2026-05-04 15:30 42.54097 18.30368 17321 ft 414 kts 122°
2026-05-04 15:31 42.51402 18.35675 16449 ft 402 kts 123°
2026-05-04 15:31 42.49805 18.38757 15934 ft 396 kts 123°
2026-05-04 15:32 42.45164 18.47699 14392 ft 379 kts 123°
2026-05-04 15:32 42.42134 18.53466 13290 ft 371 kts 124°
2026-05-04 15:33 42.39158 18.59028 12217 ft 363 kts 123°
2026-05-04 15:34 42.34883 18.67216 11040 ft 338 kts 123°
2026-05-04 15:34 42.33560 18.69753 10914 ft 323 kts 123°
2026-05-04 15:34 42.31075 18.74516 10544 ft 300 kts 123°
2026-05-04 15:35 42.28704 18.79058 10060 ft 293 kts 122°
2026-05-04 15:35 42.27697 18.81414 9891 ft 289 kts 112°
2026-05-04 15:35 42.26827 18.83862 9756 ft 289 kts 112°
2026-05-04 15:36 42.25063 18.88726 9452 ft 288 kts 113°
2026-05-04 15:36 42.24177 18.91151 9330 ft 287 kts 113°
2026-05-04 15:36 42.23305 18.93539 9190 ft 278 kts 113°
2026-05-04 15:37 42.22451 18.95833 9055 ft 269 kts 117°
2026-05-04 15:37 42.21207 18.97688 8683 ft 273 kts 144°
2026-05-04 15:37 42.19414 18.98476 8041 ft 272 kts 177°
2026-05-04 15:37 42.17595 18.97962 7379 ft 268 kts 207°
2026-05-04 15:38 42.16198 18.96411 6719 ft 263 kts 233°
2026-05-04 15:38 42.15378 18.94225 6073 ft 255 kts 257°
2026-05-04 15:38 42.15268 18.91966 5706 ft 237 kts 279°
2026-05-04 15:38 42.15580 18.89818 5405 ft 231 kts 283°
2026-05-04 15:39 42.16041 18.87778 5108 ft 225 kts 298°
2026-05-04 15:39 42.16975 18.86166 4828 ft 214 kts 319°
2026-05-04 15:39 42.19526 18.84508 4281 ft 196 kts 339°
2026-05-04 15:40 42.20783 18.83868 4045 ft 190 kts 339°
2026-05-04 15:40 42.21996 18.83244 3808 ft 184 kts 339°
2026-05-04 15:40 42.23174 18.82638 3590 ft 177 kts 338°
2026-05-04 15:40 42.24297 18.82059 3370 ft 169 kts 338°
2026-05-04 15:41 42.25374 18.81504 3143 ft 163 kts 338°
2026-05-04 15:41 42.26427 18.80960 2944 ft 160 kts 338°
2026-05-04 15:41 42.27439 18.80437 2748 ft 152 kts 337°
2026-05-04 15:41 42.28415 18.79933 2544 ft 149 kts 338°
2026-05-04 15:42 42.29377 18.79437 2329 ft 148 kts 338°
2026-05-04 15:42 42.30337 18.78940 2112 ft 147 kts 337°
2026-05-04 15:42 42.31297 18.78445 1902 ft 148 kts 337°
2026-05-04 15:42 42.32259 18.77949 1695 ft 148 kts 337°
2026-05-04 15:43 42.33221 18.77451 1527 ft 147 kts 339°
2026-05-04 15:43 42.34180 18.76961 1293 ft 148 kts 338°
2026-05-04 15:43 42.35135 18.76469 1036 ft 147 kts 337°
2026-05-04 15:43 42.36096 18.75951 822 ft 148 kts 337°
2026-05-04 15:44 42.37079 18.75521 653 ft 150 kts 342°
2026-05-04 15:44 42.38031 18.74989 471 ft 147 kts 327°
2026-05-04 15:44 42.38872 18.74205 276 ft 146 kts 320°
2026-05-04 15:44 42.39638 18.73310 66 ft 146 kts 318°
2026-05-04 15:45 42.40337 18.72482 30 ft 110 kts 319°
2026-05-04 15:45 42.40683 18.72068 28 ft 28 kts 319°
2026-05-04 15:45 42.40831 18.71900 29 ft 27 kts 320°
2026-05-04 15:45 42.40935 18.71778 30 ft 0 kts 321°
2026-05-04 15:46 42.40941 18.71775 30 ft 1 kts 341°
2026-05-04 15:46 42.40957 18.71789 28 ft 4 kts 43°
2026-05-04 15:46 42.40979 18.71823 27 ft 6 kts 48°
2026-05-04 15:46 42.40993 18.71844 27 ft 0 kts 48°
2026-05-04 15:47 42.41000 18.71852 27 ft 3 kts 37°
2026-05-04 15:47 42.41022 18.71853 28 ft 3 kts 342°
2026-05-04 15:48 42.41047 18.71827 28 ft 5 kts 319°
2026-05-04 15:48 42.41080 18.71788 27 ft 7 kts 319°
2026-05-04 15:48 42.41177 18.71674 28 ft 11 kts 319°
2026-05-04 15:49 42.41204 18.71651 29 ft 1 kts 354°
2026-05-04 15:49 42.41214 18.71660 29 ft 2 kts 42°
2026-05-04 15:49 42.41219 18.71690 28 ft 1 kts 109°
2026-05-04 15:49 42.41213 18.71694 28 ft 0 kts 144°
2026-05-04 15:50 42.41210 18.71695 28 ft 0 kts 165°
2026-05-04 15:50 42.41211 18.71698 28 ft 0 kts 169°